カタログに戻る

YOUTHSAT

運用中科学SSO
NORAD 37388·PAYLOAD·🇮🇳 India

打ち上げ Apr 20, 2011 から Satish Dhawan Space Centre

Loading…

次のパス (今後24時間)

TLE

最新Source: Space-Track

元期: Sep 14, 2026, 20:15 UTC

1 37388U 11015B   26257.84412350  .00000142  00000-0  77287-4 0  9998
2 37388  98.3800 227.9025 0015728  79.3691 305.3151 14.25660812800410

AllMySatでYOUTHSATをリアルタイム追跡

Download on the App Store